Skip Navigation Links
NOAA logo - Click to go to the NOAA homepage
NOAA's National Weather Service
Alaska Aviation Weather Unit
  NWS logo - Click to go to the NWS homepage
Left Navbar Graphic     09 AKDT = 17 GMT

   
NOAA is celebrating 200 years of science, service, and stewardship. Visit the NOAA 200th celebration Web site to learn more.
USA.gov is the U.S. Government's official Web portal to all Federal, state and local government Web resources and services.
Facebook
NWS on Facebook

Important Change Regarding the AAWU Web Presence

 

Over the last several months, the AAWU has been working to navigate its webpages to a nationally supported server. Security, as well as other needs, have necessitated the change.  In the process, we have made an effort to enhance the functionality of our website, as well as some of our products. As of June 20, 2017, aawu.arh.noaa.gov will be discontinued. The new AAWU web address is weather.gov/aawu. It is now live and will run in-parallel with the old site until it is discontinued. Please send any feedback or questions regarding the new webpages to nws.ar.aawu.webauthors@noaa.gov.  Thank you for your patience during this time of transition.
AAWU Home :: Display TAF Add Bookmark
TAF PANC 271502Z 2715/2818 14010G18KT P6SM SCT060 OVC100
     FM280600 14008KT P6SM VCSH SCT050 OVC080
     FM281200 36005KT P6SM SCT070 OVC100=

METAR PANC 271153Z 13006KT 10SM BKN070 BKN080 BKN130 06/00 A3011= METAR PANC 271253Z 14006KT 10SM BKN075 06/M01 A3011= METAR PANC 271353Z 14009KT 10SM BKN090 BKN110 06/00 A3011= METAR PANC 271453Z 16010G18KT 10SM SCT065 BKN090 OVC110 06/01 A3012= METAR PANC 271553Z 15009KT 10SM FEW030 SCT065 BKN090 BKN200 07/01 A3011= METAR PANC 271653Z 09003KT 10SM FEW030 BKN055 BKN090 BKN200 07/01 A3011=
 Alaska TAF Map

NOAA's National Weather Service
Alaska Aviation Weather Unit
6930 Sand Lake Road
Anchorage, AK 99502-1845
Disclaimer
Credits
Glossary
Privacy Policy
About Us
Career Opportunities
Contact AAWU Internet Services Site last modified: April, 17th 2012